Regional Weather Roundup
Issued by NWS

Home | Current Version | Previous Version | Graphics & Text | Print | Product List | Glossary On
Versions: 1 2 3 4 5 6 7 8 9 10 11 12 13 14 15 16 17 18 19 20 21 22 23 24 25 26 27 28 29 30 31 32 33 34 35 36 37 38 39 40 41 42 43 44 45 46 47 48 49 50
589
ASUS43 KFSD 211202
RWRSD

WEATHER ROUNDUP FOR SOUTH DAKOTA
NATIONAL WEATHER SERVICE SIOUX FALLS SD
700 AM CDT FRI JUL 21 2017

NOTE: "FAIR" INDICATES FEW OR NO CLOUDS BELOW 12,000 FEET WITH NO
SIGNIFICANT WEATHER AND/OR OBSTRUCTIONS TO VISIBILITY.


SDZ001>005-009-010-012>017-211300-
NORTHWEST AND NORTH CENTRAL SOUTH DAKOTA

CITY           SKY/WX    TMP DP  RH WIND       PRES   REMARKS
BUFFALO          N/A     67  63  87 SW10      29.81S
FAITH            N/A     67  67 100 S13       29.83R
MOBRIDGE       CLOUDY    69  63  81 SE7       29.75F
$$

SDZ012>016-024>037-041>051-057-063-072>074-211300-
SOUTHWEST AND SOUTH CENTRAL SOUTH DAKOTA

CITY           SKY/WX    TMP DP  RH WIND       PRES   REMARKS
RAPID CTY ARPT PTCLDY    63  61  93 SE5       29.90F
PIERRE         NOT AVBL
CUSTER         CLOUDY    61  55  81 W5        30.04S
ELLSWORTH AFB  PTCLDY    65  65 100 S7        29.89F
PHILIP         CLOUDY    71  69  93 SE5       29.83R
PINE RIDGE     CLOUDY    67  65  93 W5        29.92S
SPEARFISH      FAIR      63  61  94 S7        29.92S
WINNER         FAIR      72  69  90 SE6       29.77F
$$

SDZ004>011-016>023-039-040-211300-
NORTHEAST SOUTH DAKOTA

CITY           SKY/WX    TMP DP  RH WIND       PRES   REMARKS
ABERDEEN       CLOUDY    70  67  90 S10       29.76R
WATERTOWN      CLOUDY    73  72  96 S17       29.86R
BROOKINGS      TSTM      71  70  96 NW6       29.92R
SISSETON         N/A     72  70  93 SE13      29.80F
$$

SDZ017-020-022-023-036>040-048>070-211300-
SOUTHEAST SOUTH DAKOTA

CITY           SKY/WX    TMP DP  RH WIND       PRES   REMARKS
SIOUX FALLS    LGT RAIN  76  70  82 S6        29.86R
HURON          CLOUDY    73  72  96 S10       29.82F
CHAMBERLAIN    LGT RAIN  73  73 100 E6        29.81F
MITCHELL       CLOUDY    75  73  93 NE7       29.85R
YANKTON        CLOUDY    73  70  90 N8        29.81F
$$

ABBREVIATIONS USED IN REMARKS
   TC - TEMPERATURE IN CELSIUS
  WCI - WIND CHILL INDEX
   HX - HEAT INDEX
  VSB - VISIBILITY





USA.gov is the U.S. government's official web portal to all federal, state and local government web resources and services.